EW0624 Weather Reports


Display with metric or nautical units.
time (UTC)temp
F
wind
direction
speed
MPH
gust
MPH
rain 1hr
in
rain 24hr
in
rain mn
in
humidity
%
barometer
mb
20260510203404 55 178 2.0 3.0 0.00 0.30 0.30 87 1009.8
20260510202904 55 178 2.0 6.0 0.00 0.30 0.30 86 1009.8
20260510201905 56 288 0.0 0.0 0.00 0.30 0.30 86 1009.6
20260510200904 56 288 0.0 0.0 0.00 0.30 0.30 86 1009.4
20260510200404 56 288 0.0 0.0 0.00 0.30 0.30 86 1009.4
20260510195904 56 288 0.0 0.0 0.00 0.30 0.30 86 1009.3
20260510195404 56 288 0.0 0.0 0.00 0.30 0.30 86 1009.2
20260510194904 56 288 0.0 0.0 0.00 0.30 0.30 86 1009.3
20260510194404 57 288 0.0 0.0 0.00 0.30 0.30 86 1009.3
20260510193904 57 288 0.0 0.0 0.00 0.30 0.30 86 1009.4
20260510193404 57 288 0.0 2.0 0.00 0.30 0.30 85 1009.4
20260510192904 57 288 1.0 3.0 0.00 0.30 0.30 85 1009.4
20260510192404 57 289 0.0 2.0 0.00 0.30 0.30 84 1009.3
20260510191904 58 289 2.0 3.0 0.00 0.30 0.30 83 1009.3
20260510191404 58 289 1.0 2.0 0.00 0.30 0.30 83 1009.3
20260510190904 58 289 0.0 2.0 0.00 0.30 0.30 82 1009.3
20260510190404 58 289 0.0 3.0 0.00 0.30 0.30 81 1009.3
20260510185404 59 290 1.0 7.0 0.00 0.31 0.30 78 1009.3
20260510184904 59 293 2.0 7.0 0.00 0.31 0.30 74 1009.2
20260510184404 59 258 1.0 3.0 0.00 0.31 0.30 75 1009.2
20260510183904 59 74 0.0 0.0 0.00 0.31 0.30 74 1009.1
20260510183404 59 75 0.0 3.0 0.00 0.31 0.30 74 1009.0
20260510182905 59 91 1.0 3.0 0.00 0.31 0.30 73 1009.1
20260510182404 60 106 1.0 3.0 0.00 0.32 0.30 74 1009.0
20260510181404 59 107 0.0 2.0 0.00 0.32 0.30 74 1009.0
20260510180904 59 107 0.0 3.0 0.00 0.32 0.30 74 1009.0
20260510180404 59 110 1.0 3.0 0.00 0.33 0.30 75 1008.9
20260510175904 60 111 0.0 0.0 0.00 0.33 0.30 76 1008.9
20260510175404 60 111 0.0 0.0 0.00 0.33 0.30 76 1008.8
20260510174904 59 111 1.0 3.0 0.00 0.33 0.30 77 1008.8
20260510174404 59 127 0.0 3.0 0.00 0.33 0.30 80 1008.8
20260510173904 59 155 0.0 1.0 0.00 0.33 0.30 81 1008.8
20260510173404 58 155 0.0 0.0 0.00 0.33 0.30 81 1008.8
20260510172404 57 154 0.0 0.0 0.00 0.33 0.30 82 1008.7
20260510171904 57 154 0.0 0.0 0.00 0.33 0.30 83 1008.7
20260510171404 57 154 0.0 0.0 0.00 0.33 0.30 84 1008.7
20260510170904 56 154 0.0 2.0 0.00 0.33 0.30 85 1008.8
20260510170404 56 155 0.0 0.0 0.00 0.33 0.30 87 1008.8
20260510165404 56 169 0.0 3.0 0.00 0.33 0.30 87 1008.9
20260510164404 56 159 1.0 3.0 0.00 0.33 0.30 88 1008.9
20260510163904 56 149 1.0 3.0 0.00 0.33 0.30 89 1008.8
20260510163404 56 157 0.0 3.0 0.00 0.33 0.30 91 1008.9
20260510162904 56 184 1.0 2.0 0.00 0.33 0.30 92 1008.9
20260510162404 55 186 1.0 5.0 0.00 0.33 0.30 93 1008.9
20260510161904 55 172 4.0 7.0 0.00 0.33 0.30 95 1008.9
20260510161404 55 179 1.0 7.0 0.00 0.33 0.30 96 1009.0
20260510160904 55 219 1.0 6.0 0.00 0.34 0.30 96 1009.0
20260510160404 55 248 2.0 6.0 0.00 0.34 0.30 97 1009.0
20260510155904 54 188 3.0 7.0 0.00 0.34 0.30 97 1008.9
20260510154904 54 230 2.0 5.0 0.00 0.34 0.30 97 1009.0
20260510154404 54 228 1.0 3.0 0.02 0.34 0.30 98 1008.9
20260510153904 55 217 1.0 3.0 0.05 0.34 0.30 98 1008.8
20260510153405 54 252 0.0 0.0 0.06 0.34 0.30 98 1008.8
20260510152904 54 253 0.0 0.0 0.09 0.34 0.30 98 1008.8
20260510151904 53 252 0.0 0.0 0.13 0.34 0.30 97 1009.0
20260510151404 52 253 0.0 0.0 0.14 0.34 0.30 97 1009.0
20260510150904 52 254 0.0 3.0 0.16 0.34 0.30 97 1009.0
20260510150409 51 254 2.0 3.0 0.19 0.34 0.30 96 1009.0
20260510145905 51 238 2.0 5.0 0.20 0.34 0.30 96 1009.1
20260510145405 51 254 2.0 3.0 0.20 0.34 0.30 96 1009.1
20260510144903 52 260 1.0 6.0 0.20 0.34 0.30 96 1009.1
20260510144403 51 250 0.0 5.0 0.18 0.31 0.28 95 1009.1
20260510142903 52 264 1.0 6.0 0.13 0.28 0.20 94 1009.5
20260510142403 52 254 5.0 12.0 0.11 0.27 0.19 93 1009.5
20260510141903 52 247 6.0 13.0 0.09 0.25 0.17 92 1009.5
20260510141403 53 274 9.0 15.0 0.08 0.24 0.16 92 1009.4
20260510140903 53 242 7.0 14.0 0.06 0.22 0.14 91 1009.2
20260510134903 54 185 6.0 12.0 0.06 0.17 0.09 90 1008.4
20260510133903 54 261 3.0 8.0 0.09 0.21 0.09 90 1008.0
20260510133403 54 267 2.0 7.0 0.08 0.24 0.08 90 1007.8
20260510132903 54 261 5.0 8.0 0.08 0.28 0.08 90 1007.9
20260510132403 54 267 1.0 5.0 0.08 0.28 0.08 91 1007.8
20260510131903 53 279 3.0 10.0 0.08 0.28 0.08 91 1007.6
20260510131402 53 276 2.0 9.0 0.08 0.28 0.08 91 1007.6
20260510130903 53 282 3.0 12.0 0.08 0.28 0.08 91 1007.5
20260510130402 53 317 7.0 12.0 0.08 0.28 0.08 91 1007.3
20260510125903 53 269 6.0 12.0 0.08 0.28 0.08 90 1007.4
20260510125403 53 297 2.0 15.0 0.06 0.25 0.06 89 1007.4
20260510124903 54 245 11.0 20.0 0.04 0.24 0.04 86 1007.4
20260510123903 58 296 20.0 32.0 0.00 0.20 0.00 74 1007.0
20260510123403 62 280 12.0 28.0 0.00 0.20 0.00 64 1006.9
20260510122903 63 157 3.0 8.0 0.00 0.20 0.00 63 1006.4
20260510120903 64 70 4.0 13.0 0.00 0.20 0.00 62 1006.2
20260510120403 64 91 5.0 12.0 0.00 0.20 0.00 63 1006.3
20260510115903 64 81 3.0 8.0 0.00 0.20 0.00 64 1006.3
20260510114403 62 108 3.0 13.0 0.00 0.20 0.00 64 1006.5
20260510113903 62 148 8.0 13.0 0.00 0.20 0.00 64 1006.6
20260510113402 62 135 6.0 12.0 0.00 0.20 0.00 64 1006.6
20260510112903 62 124 6.0 13.0 0.00 0.20 0.00 65 1006.8
20260510111903 62 128 7.0 13.0 0.00 0.20 0.00 66 1006.9
20260510111402 62 139 3.0 10.0 0.00 0.20 0.00 66 1007.0
20260510110903 61 131 4.0 12.0 0.00 0.20 0.00 66 1007.1
20260510110403 61 143 3.0 12.0 0.00 0.20 0.00 66 1007.2
20260510105902 61 118 5.0 12.0 0.00 0.20 0.00 66 1007.2
20260510105403 61 142 6.0 12.0 0.00 0.20 0.00 66 1007.2
20260510104902 61 118 4.0 12.0 0.00 0.20 0.00 67 1007.3
20260510103903 61 154 7.0 12.0 0.00 0.20 0.00 67 1007.2
20260510103403 61 143 7.0 13.0 0.00 0.20 0.00 67 1007.3
20260510102403 61 132 5.0 12.0 0.00 0.20 0.00 69 1007.2
20260510095403 62 60 3.0 9.0 0.00 0.20 0.00 71 1007.3
20260510094903 62 67 1.0 5.0 0.00 0.20 0.00 71 1007.3
20260510094403 63 36 2.0 3.0 0.00 0.20 0.00 70 1007.3
20260510093903 63 77 1.0 3.0 0.00 0.20 0.00 70 1007.2
20260510092906 63 321 0.0 1.0 0.00 0.20 0.00 69 1007.2
20260510092403 62 321 0.0 1.0 0.00 0.20 0.00 69 1007.2
20260510090903 60 319 0.0 0.0 0.00 0.20 0.00 76 1007.2
20260510090403 60 325 0.0 0.0 0.00 0.20 0.00 78 1007.1
20260510085903 59 325 0.0 0.0 0.00 0.20 0.00 79 1007.1
20260510085403 58 324 0.0 0.0 0.00 0.20 0.00 80 1007.1
20260510084902 58 324 0.0 0.0 0.00 0.20 0.00 81 1007.2
20260510084403 57 324 0.0 0.0 0.00 0.20 0.00 81 1007.2
20260510083902 57 325 0.0 1.0 0.00 0.20 0.00 83 1007.2
20260510083402 56 325 0.0 0.0 0.00 0.20 0.00 88 1007.1
20260510082902 56 325 0.0 0.0 0.00 0.20 0.00 91 1007.1
20260510082403 55 325 0.0 0.0 0.00 0.20 0.00 92 1007.2
20260510081903 55 324 0.0 2.0 0.00 0.20 0.00 92 1007.3
20260510080903 55 325 0.0 2.0 0.00 0.20 0.00 92 1007.4
20260510075403 55 327 2.0 3.0 0.00 0.20 0.00 88 1007.5
20260510074902 56 25 0.0 0.0 0.00 0.20 0.00 87 1007.4
20260510074406 56 26 0.0 0.0 0.00 0.20 0.00 87 1007.4
20260510073904 55 26 0.0 0.0 0.00 0.20 0.00 86 1007.3
20260510073403 56 26 0.0 0.0 0.00 0.20 0.00 86 1007.1
20260510072403 57 62 0.0 0.0 0.00 0.20 0.00 87 1006.9
20260510071903 56 64 0.0 0.0 0.00 0.20 0.00 89 1006.9
20260510071403 56 64 0.0 0.0 0.00 0.20 0.00 90 1006.9
20260510070902 55 63 0.0 0.0 0.00 0.20 0.00 92 1007.0
20260510065903 54 63 0.0 0.0 0.00 0.20 0.00 92 1007.1
20260510065403 54 64 0.0 0.0 0.00 0.20 0.00 93 1007.1
20260510064903 53 63 0.0 0.0 0.00 0.20 0.00 93 1007.1
20260510064403 53 63 0.0 0.0 0.00 0.20 0.00 94 1007.1
20260510063902 53 64 0.0 0.0 0.00 0.20 0.00 94 1007.0
20260510063403 53 63 2.0 3.0 0.00 0.20 0.00 94 1007.0
20260510062902 52 61 2.0 3.0 0.00 0.20 0.00 94 1007.0
20260510061903 52 52 2.0 3.0 0.00 0.20 0.00 95 1007.1
20260510061403 52 49 0.0 3.0 0.00 0.20 0.00 95 1007.0
20260510060903 53 47 3.0 5.0 0.00 0.20 0.00 96 1007.0
20260510060403 53 348 1.0 3.0 0.00 0.20 0.00 96 1006.9
20260510055903 52 323 0.0 0.0 0.00 0.20 0.00 96 1006.8
20260510055403 52 323 0.0 0.0 0.00 0.20 0.00 96 1006.8
20260510054903 51 322 0.0 0.0 0.00 0.20 0.00 96 1006.7
20260510054402 51 322 0.0 0.0 0.00 0.20 0.00 96 1006.7
20260510053403 51 322 0.0 1.0 0.00 0.20 0.00 96 1006.7
20260510052903 51 322 1.0 3.0 0.00 0.20 0.00 96 1006.5
20260510051903 51 321 0.0 0.0 0.00 0.20 0.00 96 1006.6
20260510051403 51 266 0.0 0.0 0.00 0.20 0.00 96 1006.6
20260510045903 50 266 0.0 2.0 0.00 0.20 0.00 96 1006.6
20260510044403 51 163 3.0 10.0 0.00 0.20 0.00 95 1006.6
20260510043903 51 250 1.0 3.0 0.00 0.20 0.00 95 1006.5
20260510043403 51 299 0.0 0.0 0.00 0.20 0.00 95 1006.5
20260510042903 51 299 0.0 1.0 0.00 0.20 0.00 95 1006.5
20260510041906 51 252 6.0 8.0 0.00 0.20 0.00 95 1006.5
20260510041403 51 228 5.0 7.0 0.00 0.20 0.00 95 1006.5
20260510040917 51 249 3.0 7.0 0.00 0.20 0.00 95 1006.4
20260510040403 51 280 0.0 3.0 0.00 0.20 0.00 95 1006.4
20260510035903 51 280 1.0 6.0 0.00 0.20 0.00 94 1006.4
20260510034403 51 290 0.0 3.0 0.00 0.20 0.00 94 1006.4
20260510033903 51 291 0.0 0.0 0.00 0.20 0.00 94 1006.3
20260510032903 51 290 2.0 5.0 0.00 0.20 0.00 93 1006.3
20260510032403 52 294 0.0 1.0 0.00 0.20 0.00 93 1006.3
20260510031903 52 294 1.0 6.0 0.00 0.20 0.00 93 1006.3
20260510031403 52 289 5.0 9.0 0.00 0.20 0.00 93 1006.3
20260510030903 52 178 0.0 3.0 0.00 0.20 0.00 94 1006.1
20260510025903 52 224 1.0 5.0 0.00 0.20 0.00 95 1006.2
20260510025403 52 259 0.0 0.0 0.00 0.20 0.00 95 1006.3
20260510024903 52 259 0.0 0.0 0.00 0.20 0.00 94 1006.3
20260510023903 51 259 0.0 3.0 0.00 0.20 0.00 93 1006.3
20260510023403 52 261 2.0 6.0 0.00 0.20 0.00 93 1006.3
20260510022903 52 273 1.0 6.0 0.00 0.20 0.00 93 1006.3
20260510022403 53 249 1.0 3.0 0.00 0.20 0.00 93 1006.3
20260510021903 53 207 0.0 2.0 0.00 0.20 0.00 92 1006.4
20260510021403 53 184 0.0 2.0 0.00 0.20 0.00 92 1006.4
20260510020903 53 184 1.0 3.0 0.00 0.20 0.00 91 1006.3
20260510020403 53 183 1.0 2.0 0.00 0.20 0.00 92 1006.3
20260510015903 53 184 0.0 0.0 0.00 0.20 0.00 92 1006.3
20260510015403 53 184 0.0 0.0 0.00 0.20 0.00 92 1006.3
20260510014903 53 184 0.0 0.0 0.00 0.20 0.00 93 1006.3
20260510014403 53 184 0.0 0.0 0.00 0.20 0.00 93 1006.4
20260510013903 53 184 0.0 0.0 0.00 0.20 0.00 93 1006.4
20260510013403 53 182 0.0 3.0 0.00 0.20 0.00 93 1006.3
20260510012903 53 182 0.0 3.0 0.00 0.20 0.00 93 1006.2
20260510012403 52 182 0.0 3.0 0.00 0.20 0.00 93 1006.2
20260510011903 52 184 3.0 6.0 0.00 0.20 0.00 94 1006.3
20260510010403 52 181 0.0 0.0 0.00 0.20 0.00 94 1006.3
20260510005903 52 182 0.0 0.0 0.00 0.20 0.00 95 1006.4
20260510005403 52 182 0.0 2.0 0.00 0.20 0.00 95 1006.5
20260510004903 52 182 3.0 5.0 0.00 0.20 0.00 95 1006.7
20260510004403 52 184 3.0 5.0 0.00 0.20 0.00 95 1006.8
20260510003903 52 184 2.0 3.0 0.00 0.20 0.00 95 1006.7
20260510002903 52 221 0.0 5.0 0.00 0.20 0.00 94 1006.7
20260510002403 52 218 2.0 3.0 0.00 0.20 0.00 94 1006.7
20260510001403 52 185 2.0 3.0 0.00 0.20 0.00 93 1006.7
20260510000903 53 209 0.0 5.0 0.00 0.20 0.00 93 1006.7
20260510000403 53 206 0.0 2.0 0.00 0.20 0.00 93 1006.7
20260509235903 53 206 0.0 3.0 0.00 0.20 0.00 93 1006.5
20260509235403 53 206 1.0 3.0 0.00 0.20 0.00 93 1006.8
20260509234903 53 207 0.0 0.0 0.00 0.20 0.00 93 1006.7
20260509233903 53 207 0.0 0.0 0.00 0.20 0.00 92 1006.6
20260509233403 53 207 0.0 1.0 0.00 0.20 0.00 92 1006.7
20260509232903 53 207 0.0 3.0 0.00 0.20 0.00 92 1006.7
20260509232403 54 203 1.0 3.0 0.00 0.20 0.00 92 1006.8
20260509231903 54 184 0.0 0.0 0.00 0.20 0.00 92 1006.7
20260509231403 54 184 0.0 3.0 0.00 0.20 0.00 92 1006.7
20260509230903 54 184 2.0 3.0 0.00 0.20 0.00 92 1006.8
20260509230403 54 144 0.0 0.0 0.00 0.20 0.00 92 1006.6
20260509225403 54 144 2.0 3.0 0.00 0.20 0.00 92 1006.7
20260509224903 54 100 0.0 0.0 0.00 0.20 0.00 92 1006.7
20260509224403 54 99 0.0 3.0 0.00 0.20 0.00 92 1006.7
20260509222903 54 128 1.0 5.0 0.00 0.20 0.00 91 1006.7
20260509222404 54 183 1.0 3.0 0.00 0.20 0.00 91 1006.7
20260509221903 54 185 0.0 3.0 0.00 0.20 0.00 91 1006.6
20260509221403 54 185 3.0 6.0 0.00 0.20 0.00 90 1006.7
20260509220403 55 194 2.0 3.0 0.00 0.20 0.00 89 1006.7
20260509215903 55 269 0.0 3.0 0.00 0.20 0.20 88 1006.6
20260509215403 55 281 2.0 6.0 0.00 0.20 0.20 87 1006.5
20260509214903 56 242 1.0 5.0 0.00 0.20 0.20 87 1006.5
20260509214404 56 243 3.0 5.0 0.00 0.20 0.20 86 1006.5
20260509213903 56 183 5.0 6.0 0.00 0.20 0.20 86 1006.5
20260509213403 56 147 3.0 3.0 0.00 0.20 0.20 87 1006.3
20260509212403 56 126 0.0 0.0 0.00 0.20 0.20 88 1006.5
20260509211403 56 126 0.0 1.0 0.00 0.20 0.20 88 1006.5
20260509210903 56 126 0.0 0.0 0.00 0.20 0.20 88 1006.5
20260509210403 57 126 0.0 2.0 0.00 0.20 0.20 87 1006.4
20260509205903 57 85 0.0 0.0 0.00 0.20 0.20 87 1006.4
20260509205403 57 85 0.0 0.0 0.00 0.20 0.20 87 1006.3